Weather History for Pocatello, ID

Change the Weather History Date:

Wednesday, May 7, 2014

  Actual Average Record
Temperature  
Mean Temperature 46 °F 51 °F  
Max Temperature 53 °F 65 °F 88 °F (1947)
Min Temperature 39 °F 38 °F 21 °F (2010)
Degree Days  
Heating Degree Days 19 14  
Month to date heating degree days 76 102  
Since 1 July heating degree days 6346 6796  
Cooling Degree Days 0 0  
Month to date cooling degree days 0 0  
Year to date cooling degree days 0 0  
Moisture  
Dew Point 38 °F    
Average Humidity 75    
Maximum Humidity 96    
Minimum Humidity 54    
Precipitation  
Precipitation T in 0.05 in 0.61 in (2000)
Month to date precipitation 0.28 0.33  
Year to date precipitation 5.65 4.70  
Snow  
Snow 0.00 in - - ()
Month to date snowfall 0.0  
Since 1 July snowfall 29.4  
Snow Depth 0.00 in    
Sea Level Pressure  
Sea Level Pressure 29.75 in    
Wind  
Wind Speed 9 mph (NNW)    
Max Wind Speed 20 mph    
Max Gust Speed 24 mph    
Visibility 10 miles    
Events Rain    
T = Trace of Precipitation, MM = Missing Value Source: NWS Daily Summary

Daily Weather History Graph

Daily Weather History Graph

Search for Another Location

Airport:

Trip Planner

Search our weather history database for the weather conditions in past years. The results will help you decide how hot, cold, wet, or windy it might be!

Date:

Astronomy

May. 07, 2014 Rise Set
Actual Time 6:16 AM MDT 8:38 PM MDT
Civil Twilight 5:44 AM MDT 9:09 PM MDT
Nautical Twilight 5:05 AM MDT 9:49 PM MDT
Astronomical Twilight 4:21 AM MDT 10:33 PM MDT
Moon 1:36 PM MDT (5/7) 2:28 AM MDT (5/7)
Length of Visible Light 15h 25m
Length of Day
14h 21m
First Quarter, 56% of the Moon is Illuminated
May 7
First Quarter
May 14
Full
May 21
Last Quarter
May 28
New
Jun 5
First Quarter

Hourly Weather History & Observations

Time (MDT) Temp. Windchill Dew Point Humidity Pressure Visibility Wind Dir Wind Speed Gust Speed Precip Events Conditions
12:53 AM 43.0 °F 39.5 °F 41.0 °F 93% 29.72 in 10.0 mi SSW 5.8 mph - N/A   Partly Cloudy
1:53 AM 43.0 °F - 41.0 °F 93% 29.70 in 10.0 mi Calm Calm - N/A   Overcast
2:53 AM 43.0 °F 41.3 °F 41.0 °F 93% 29.69 in 10.0 mi East 3.5 mph - N/A   Overcast
3:53 AM 43.0 °F - 39.9 °F 89% 29.69 in 10.0 mi Calm Calm - N/A   Overcast
4:53 AM 43.0 °F 41.3 °F 37.9 °F 82% 29.69 in 10.0 mi ENE 3.5 mph - N/A   Overcast
5:53 AM 43.0 °F 41.3 °F 37.9 °F 82% 29.69 in 10.0 mi NW 3.5 mph - 0.00 in Rain Light Rain
6:53 AM 42.1 °F 36.6 °F 37.0 °F 82% 29.70 in 10.0 mi North 9.2 mph - 0.00 in Rain Light Rain
7:34 AM 41.0 °F 35.8 °F 37.9 °F 89% 29.74 in 10.0 mi NNE 8.1 mph - 0.00 in Rain Light Rain
7:53 AM 41.0 °F 34.3 °F 37.0 °F 86% 29.73 in 10.0 mi NNE 11.5 mph - 0.00 in Rain Light Rain
8:53 AM 41.0 °F 32.5 °F 37.0 °F 86% 29.74 in 10.0 mi NNE 17.3 mph - 0.00 in Rain Light Rain
9:00 AM 41.0 °F 33.9 °F 37.0 °F 86% 29.76 in 10.0 mi NE 12.7 mph - 0.00 in   Overcast
9:53 AM 42.1 °F 35.7 °F 37.0 °F 82% 29.75 in 10.0 mi NE 11.5 mph - 0.00 in   Overcast
10:53 AM 44.6 °F 39.7 °F 37.4 °F 76% 29.77 in 10.0 mi ENE 9.2 mph - N/A   Mostly Cloudy
11:53 AM 48.0 °F - 37.0 °F 66% 29.75 in 10.0 mi NE 9.2 mph 19.6 mph N/A   Mostly Cloudy
12:53 PM 48.9 °F - 37.0 °F 64% 29.74 in 10.0 mi ENE 6.9 mph - N/A   Overcast
1:53 PM 48.9 °F - 37.0 °F 64% 29.74 in 10.0 mi NW 5.8 mph - N/A   Overcast
2:53 PM 48.0 °F - 39.9 °F 74% 29.75 in 10.0 mi West 16.1 mph - 0.00 in   Mostly Cloudy
3:53 PM 51.8 °F - 41.0 °F 67% 29.77 in 10.0 mi West 16.1 mph - N/A   Mostly Cloudy
4:53 PM 48.9 °F - 41.0 °F 74% 29.76 in 10.0 mi WNW 18.4 mph - 0.00 in Rain Light Rain
5:53 PM 48.0 °F - 39.0 °F 71% 29.76 in 10.0 mi West 11.5 mph - 0.00 in   Mostly Cloudy
6:53 PM 51.1 °F - 35.1 °F 54% 29.76 in 10.0 mi WNW 6.9 mph - 0.00 in   Mostly Cloudy
7:53 PM 48.0 °F - 37.9 °F 68% 29.80 in 10.0 mi Variable 4.6 mph - N/A   Mostly Cloudy
8:53 PM 44.1 °F 40.1 °F 39.9 °F 85% 29.82 in 10.0 mi West 6.9 mph - N/A   Mostly Cloudy
9:53 PM 42.8 °F 37.5 °F 37.4 °F 81% 29.85 in 10.0 mi SSW 9.2 mph - N/A   Scattered Clouds
10:53 PM 39.0 °F 34.0 °F 35.1 °F 86% 29.86 in 10.0 mi SW 6.9 mph - N/A   Clear
11:53 PM 41.0 °F 35.2 °F 35.1 °F 79% 29.85 in 10.0 mi SSW 9.2 mph - N/A   Mostly Cloudy